[[{"header":{"parameterUnit":"m.s-1","parameterCategory":1,"la1":30.2991,"la2":30.254,"lo1":-89.0895,"lo2":-89.0444,"dy":0.0017,"dx":0.0017,"nx":28,"ny":28,"refTime":"2025-04-16T03:00:00:Z","depth":0,"parameterNumber":2,"parameterNumberName":"U-component_of_WINDS"},"data":[0,0,0,0,0,0,0,0,0,0,0,0,0,0,0,0,0,0,0,0,0,0,0,0,0,0,0,0,0,0,0,0,0,0,0,0,0,0,0,0,0,0,0,0,0,0,0,0,0,0,0,0,0,0,0,0,0,0,0.4741,0.4743,0,0.4877,0.4878,0.488,0.4962,0.4963,0.4963,0.4964,0.5101,0.5104,0.5107,0,0,0,0,0,0,0,0,0,0,0,0,0,0.4551,0.4554,0.4741,0.4743,0.4744,0.4876,0.4878,0.488,0.4962,0.4963,0.4963,0.4964,0.51,0.5103,0.5107,0,0,0,0,0,0,0,0,0,0,0,0,0,0.4654,0.4555,0.4741,0.4801,0.4808,0.4876,0.4878,0.4881,0.4962,0.4963,0.4964,0.4964,0.5098,0.5103,0.5108,0.5126,0,0,0.5123,0.5125,0,0,0,0,0,0,0,0,0.4648,0.4661,0.4791,0.4797,0.4805,0.4903,0.4862,0.4963,0.4962,0.4904,0.4964,0.4964,0.5034,0.5045,0.5069,0.5132,0.5138,0.5123,0.5126,0.5128,0.513,0,0,0,0,0,0,0,0.4641,0.4656,0.4795,0.4792,0.4801,0.4821,0.4836,0.4881,0.4964,0.4909,0.4915,0.493,0.5038,0.5064,0.5072,0.514,0.5123,0.5127,0.513,0.5132,0.5224,0.5223,0,0,0,0,0,0,0.4625,0.4649,0.479,0.4799,0.4727,0.4824,0.4841,0.4871,0.4964,0.4978,0.4929,0.4934,0.5055,0.5067,0.5078,0.5104,0.5128,0.5133,0.5136,0.5224,0.5224,0.5223,0,0,0,0,0,0,0.462,0.4636,0.4785,0.4726,0.4746,0.4827,0.4859,0.4873,0.4899,0.4979,0.4994,0.494,0.5056,0.5071,0.5113,0.5109,0.5135,0.514,0.5225,0.5224,0.5223,0.5156,0,0,0,0,0,0,0.4614,0.4634,0.4642,0.4726,0.4749,0.4818,0.4859,0.4876,0.4907,0.4914,0.4993,0.5007,0.5058,0.5105,0.5118,0.5117,0.5143,0.5225,0.5224,0.5224,0.5159,0.5153,0.5148,0,0,0,0,0,0.4607,0.4618,0.4642,0.4659,0.4761,0.4818,0.4831,0.489,0.4907,0.4915,0.4967,0.5004,0.5108,0.5109,0.5124,0.5124,0.5226,0.5225,0.5224,0.5161,0.5154,0.5148,0,0,0,0,0,0,0.4531,0.463,0.4658,0.4696,0.4748,0.4832,0.4844,0.4881,0.4929,0.4933,0.5003,0.502,0.5055,0.5094,0.5093,0.5146,0.5171,0.5173,0.5119,0.5113,0.5107,0.5096,0.5147,0,0,0,0,0,0.4519,0.4558,0.4642,0.4667,0.4692,0.4763,0.479,0.4831,0.4887,0.491,0.4964,0.5017,0.5062,0.509,0.5135,0.5165,0.5183,0.5173,0.5167,0.5162,0.5163,0.518,0.5176,0.5219,0.5219,0.5219,0,0,0.4494,0.4552,0.4573,0.4653,0.4698,0.4736,0.4781,0.4819,0.4848,0.4915,0.4958,0.5,0.5064,0.51,0.5119,0.5133,0.5155,0.5161,0.5156,0.516,0.5179,0.5175,0.5171,0.5219,0.5219,0.5219,0,0,0.4467,0.4516,0.4542,0.4586,0.4654,0.4702,0.4708,0.4786,0.4817,0.4862,0.4913,0.4947,0.5023,0.5066,0.5098,0.5087,0.5123,0.51,0.5071,0.5087,0.5084,0.5081,0.5076,0.5074,0.51,0.51,0.51,0,0.4427,0.4486,0.455,0.4585,0.4619,0.4682,0.4709,0.4749,0.4827,0.4848,0.4865,0.496,0.5008,0.5054,0.5051,0.5075,0.5083,0.509,0.508,0.5077,0.5076,0.5072,0.507,0.5096,0.5097,0.5097,0.5097,0,0.4433,0.4474,0.4486,0.4561,0.4597,0.4627,0.4694,0.4722,0.4759,0.4805,0.4849,0.4908,0.4966,0.4981,0.5018,0.5032,0.5039,0.5066,0.5093,0.5067,0.5065,0.5064,0.5092,0.5093,0.5094,0.5095,0,0,0.4361,0.4472,0.4475,0.451,0.459,0.4622,0.4655,0.4712,0.4734,0.4786,0.4815,0.4877,0.4903,0.4939,0.4981,0.4996,0.4982,0.5022,0.5024,0.5011,0.5001,0.4978,0.4976,0.5007,0.5007,0.5007,0.4995,0,0.4345,0.4408,0.4466,0.4508,0.4546,0.4607,0.4636,0.4687,0.473,0.4768,0.4816,0.4859,0.489,0.4912,0.4929,0.498,0.4981,0.4982,0.5033,0.5034,0.5014,0.4975,0.4952,0.4937,0.4994,0.4994,0.4994,0,0.4334,0.4385,0.443,0.4506,0.4524,0.4549,0.4606,0.4642,0.4701,0.4732,0.4771,0.4816,0.4853,0.4877,0.4928,0.4927,0.4952,0.498,0.4981,0.4987,0.5012,0.4978,0.4934,0.4931,0.4993,0.4993,0.4993,0,0.4276,0.4355,0.4392,0.442,0.451,0.4526,0.4564,0.4624,0.4655,0.4704,0.4725,0.4778,0.4806,0.4846,0.4904,0.4916,0.4948,0.4977,0.4974,0.4972,0.4977,0.4975,0.4934,0.4995,0.4995,0.4995,0.4995,0,0.4251,0.4276,0.4367,0.439,0.4419,0.4486,0.4513,0.4556,0.4609,0.4641,0.4697,0.4725,0.4801,0.4837,0.4883,0.4918,0.493,0.4955,0.4967,0.495,0.4946,0.4966,0.4968,0.4994,0.4994,0.4994,0.4994,0,0.419,0.4252,0.4296,0.4378,0.4399,0.4417,0.4487,0.451,0.4557,0.4596,0.4609,0.4683,0.4729,0.4791,0.4857,0.4887,0.4915,0.4934,0.4895,0.4902,0.4894,0.4893,0.4863,0.4862,0.4923,0.4923,0.4922,0,0.4169,0.419,0.4274,0.4299,0.4336,0.4376,0.4408,0.4474,0.4505,0.4574,0.4589,0.464,0.4684,0.4755,0.4814,0.4864,0.4884,0.487,0.4891,0.4873,0.4882,0.4879,0.4881,0.4863,0.4862,0.4862,0.4861,0,0.4125,0.4155,0.4199,0.4253,0.429,0.4336,0.4384,0.4402,0.4478,0.4509,0.4558,0.4592,0.4659,0.4708,0.4767,0.4805,0.4845,0.4854,0.4855,0.4837,0.4813,0.4825,0.4879,0.4854,0.4855,0.4855,0.4855,0.4856,0.4083,0.4104,0.4166,0.4213,0.4257,0.4301,0.4327,0.4377,0.4419,0.4479,0.4516,0.4562,0.4621,0.4703,0.474,0.4777,0.4793,0.4795,0.4796,0.4795,0.4788,0.4808,0.4788,0.4788,0.4788,0.4789,0.4789,0,0.404,0.4084,0.4126,0.4193,0.4229,0.4265,0.4321,0.4349,0.4389,0.4441,0.4483,0.4538,0.4587,0.4649,0.4701,0.4719,0.4738,0.473,0.4729,0.4737,0.4772,0.4765,0.4713,0.4713,0.4713,0.4713,0.4713,0.4713,0.4023,0.406,0.4097,0.4156,0.4199,0.4246,0.4274,0.4315,0.4356,0.4415,0.4456,0.4497,0.4553,0.461,0.4655,0.4672,0.4688,0.4674,0.4696,0.4728,0.4734,0.4741,0.4734,0.4677,0.4677,0.4658,0.4657,0.4657]},{"header":{"parameterUnit":"m.s-1","parameterCategory":1,"la1":30.2991,"la2":30.254,"lo1":-89.0895,"lo2":-89.0444,"dy":0.0017,"dx":0.0017,"nx":28,"ny":28,"refTime":"2025-04-16T03:00:00:Z","depth":0,"parameterNumber":3,"parameterNumberName":"V-component_of_WINDS"},"data":[0,0,0,0,0,0,0,0,0,0,0,0,0,0,0,0,0,0,0,0,0,0,0,0,0,0,0,0,0,0,0,0,0,0,0,0,0,0,0,0,0,0,0,0,0,0,0,0,0,0,0,0,0,0,0,0,0,0,2.943,2.943,0,2.9417,2.9417,2.9417,2.9399,2.9399,2.9399,2.9399,2.9386,2.9386,2.9386,0,0,0,0,0,0,0,0,0,0,0,0,0,2.9438,2.9438,2.943,2.943,2.9429,2.9417,2.9417,2.9417,2.9399,2.9399,2.9399,2.9398,2.9386,2.9386,2.9386,0,0,0,0,0,0,0,0,0,0,0,0,0,2.9431,2.9438,2.943,2.9419,2.9418,2.9418,2.9417,2.9417,2.94,2.9399,2.9399,2.9398,2.9386,2.9386,2.9386,2.9394,0,0,2.9385,2.9385,0,0,0,0,0,0,0,0,2.9431,2.9431,2.9421,2.942,2.9419,2.941,2.9415,2.9409,2.94,2.9407,2.9399,2.9398,2.9394,2.9393,2.9392,2.9394,2.9393,2.9385,2.9385,2.9385,2.9385,0,0,0,0,0,0,0,2.9432,2.9431,2.9425,2.9421,2.9419,2.9415,2.9414,2.9414,2.9403,2.9406,2.9405,2.9403,2.9393,2.9392,2.9391,2.9393,2.9385,2.9385,2.9385,2.9385,2.9401,2.9401,0,0,0,0,0,0,2.9434,2.9431,2.9425,2.9424,2.9424,2.9415,2.9414,2.9413,2.9403,2.9401,2.9404,2.9403,2.9392,2.9392,2.9391,2.94,2.9385,2.9385,2.9385,2.94,2.9401,2.9402,0,0,0,0,0,0,2.9434,2.9433,2.9426,2.9428,2.9426,2.9416,2.9415,2.9413,2.9412,2.9401,2.9399,2.9405,2.9392,2.9391,2.9393,2.9399,2.9385,2.9385,2.94,2.9401,2.9401,2.9419,0,0,0,0,0,0,2.9434,2.9434,2.9437,2.9428,2.9426,2.9429,2.9415,2.9413,2.9412,2.941,2.9401,2.94,2.9392,2.9394,2.9393,2.9399,2.9385,2.9399,2.94,2.9401,2.9418,2.942,2.9422,0,0,0,0,0,2.9435,2.9442,2.9437,2.9436,2.943,2.9429,2.9428,2.9419,2.9412,2.9415,2.9409,2.94,2.9399,2.9394,2.9394,2.9399,2.9399,2.94,2.9401,2.9417,2.942,2.9422,0,0,0,0,0,0,2.9452,2.9441,2.9435,2.944,2.9436,2.9426,2.943,2.9422,2.9419,2.9418,2.9406,2.9405,2.9409,2.9404,2.9399,2.9407,2.9398,2.9399,2.941,2.9412,2.9415,2.9415,2.9385,0,0,0,0,0,2.9456,2.9457,2.9447,2.9452,2.945,2.944,2.944,2.9433,2.9428,2.9426,2.9419,2.9415,2.9413,2.9413,2.9411,2.9417,2.9415,2.9421,2.9423,2.9425,2.9426,2.9429,2.9431,2.9405,2.9405,2.9405,0,0,2.9465,2.9459,2.946,2.9455,2.9451,2.9451,2.9439,2.944,2.944,2.9426,2.9428,2.9423,2.9417,2.9422,2.9423,2.9418,2.9433,2.9426,2.9428,2.9428,2.943,2.9432,2.9435,2.9406,2.9406,2.9406,0,0,2.9482,2.9477,2.9481,2.9477,2.9471,2.9465,2.9466,2.9457,2.9454,2.9456,2.9445,2.9445,2.9443,2.9439,2.9437,2.9453,2.9444,2.9452,2.9464,2.9467,2.9469,2.947,2.9476,2.9478,2.9453,2.9453,2.9453,0,2.9494,2.9494,2.9484,2.9485,2.9484,2.9471,2.9475,2.9472,2.9465,2.9464,2.9459,2.9456,2.9451,2.9455,2.9458,2.9457,2.9458,2.9453,2.9469,2.9471,2.9472,2.9477,2.9479,2.9454,2.9454,2.9454,2.9454,0,2.9508,2.9509,2.9512,2.9507,2.9505,2.9508,2.9499,2.9499,2.9492,2.9486,2.9488,2.9482,2.9479,2.9479,2.9473,2.9481,2.9478,2.9471,2.9461,2.9476,2.948,2.9482,2.9456,2.9455,2.9455,2.9455,0,0,2.9535,2.9524,2.9525,2.9523,2.9515,2.9515,2.9518,2.9514,2.9514,2.9511,2.9512,2.9511,2.9504,2.9502,2.9495,2.9498,2.951,2.949,2.949,2.9493,2.9519,2.9524,2.9526,2.9505,2.9505,2.9505,2.9519,0,2.9549,2.9552,2.9544,2.9549,2.9549,2.9537,2.9539,2.9535,2.953,2.9529,2.9523,2.9522,2.9514,2.9512,2.9514,2.9508,2.9515,2.9507,2.9505,2.9505,2.9507,2.9528,2.9534,2.9547,2.9521,2.9521,2.9521,0,2.9566,2.9564,2.9569,2.9561,2.9561,2.9563,2.9559,2.9559,2.9554,2.955,2.9547,2.9539,2.9541,2.9532,2.9534,2.9529,2.9528,2.9525,2.9525,2.9524,2.9514,2.9528,2.9551,2.9553,2.9524,2.9524,2.9524,0,2.9585,2.9582,2.9585,2.9583,2.9574,2.9576,2.9572,2.9567,2.9566,2.9563,2.9562,2.9559,2.9558,2.9556,2.9547,2.9542,2.955,2.954,2.9546,2.9547,2.9548,2.9548,2.9571,2.9549,2.9548,2.9548,2.9548,0,2.9601,2.9605,2.9593,2.9595,2.9598,2.9589,2.9592,2.9588,2.9583,2.9583,2.9574,2.9574,2.9563,2.9563,2.9556,2.9559,2.9558,2.9555,2.9553,2.9555,2.9556,2.9554,2.9553,2.9549,2.9549,2.9549,2.9549,0,2.9622,2.9614,2.9616,2.9608,2.9606,2.9609,2.9602,2.9603,2.9598,2.9598,2.9598,2.9589,2.9588,2.9579,2.9576,2.9572,2.9577,2.9573,2.9578,2.9577,2.9583,2.9583,2.9606,2.9608,2.9584,2.9585,2.9585,0,2.9633,2.9635,2.9627,2.9627,2.9624,2.9624,2.9622,2.9613,2.9612,2.9607,2.9609,2.9607,2.9605,2.9603,2.9597,2.9594,2.959,2.9599,2.959,2.9592,2.959,2.959,2.959,2.96,2.9601,2.9601,2.9601,0,2.9653,2.9649,2.9648,2.9645,2.9644,2.9641,2.9638,2.9638,2.9628,2.9628,2.9626,2.9625,2.9622,2.962,2.9617,2.9613,2.9605,2.9604,2.9605,2.9607,2.961,2.9608,2.9583,2.9603,2.9603,2.9603,2.9603,2.9603,2.9668,2.967,2.9665,2.9664,2.9661,2.9658,2.9658,2.9653,2.9652,2.9649,2.9644,2.9643,2.9638,2.9633,2.963,2.9629,2.9625,2.9626,2.9627,2.9627,2.9628,2.9611,2.9628,2.9628,2.9628,2.9628,2.9628,0,2.9688,2.9684,2.9683,2.9679,2.9678,2.9671,2.9668,2.9667,2.9667,2.9663,2.9661,2.966,2.9658,2.9652,2.9649,2.965,2.9646,2.965,2.9649,2.9648,2.9633,2.9632,2.9652,2.9652,2.9652,2.9652,2.9652,2.9652,2.9697,2.97,2.9695,2.9696,2.9692,2.9692,2.969,2.9688,2.9684,2.9683,2.9682,2.9678,2.9673,2.967,2.9668,2.9666,2.9665,2.967,2.9666,2.9652,2.9649,2.9647,2.9646,2.967,2.967,2.9682,2.9682,2.9682]}]]